This demonstration page uses our WeatherBlox Daily Observations layout. Learn more.

36.17497, -115.13722

Hourly Observations for April 2, 2018

Temp ( °F °C ) Dew Point ( °F °C ) Humidity (%) Winds ( mph kmh ) Pressure ( in mb ) Visibility ( mi km ) Precip ( " mm )
12:53 am 00:53 Clear 65 18.3 25 -3.9 22 22 NW 5 7 29.71 1006 10 16.09344 0 0
1:53 am 01:53 Clear 62 16.7 27 -2.8 26 26 WNW 5 7 29.68 1005 10 16.09344 0 0
2:53 am 02:53 Clear 61 16.1 27 -2.8 27 27 NW 5 7 29.68 1005 10 16.09344 0 0
3:53 am 03:53 Clear 60 15.6 25 -3.9 26 26 NW 6 9 29.68 1005 10 16.09344 0 0
4:53 am 04:53 Clear 58 14.4 26 -3.3 29 29 NNW 7 11 29.68 1005 10 16.09344 0 0
5:53 am 05:53 Clear 57 13.9 26 -3.3 30 30 NW 3 6 29.68 1005 10 16.09344 0 0
6:53 am 06:53 Sunny 57 13.9 26 -3.3 30 30 NW 5 7 29.71 1006 10 16.09344 0 0
7:53 am 07:53 Sunny 63 17.2 25 -3.9 24 24 N 6 9 29.71 1006 10 16.09344 0 0
8:53 am 08:53 Sunny 67 19.4 26 -3.3 21 21 NE 6 9 29.74 1007 10 16.09344 0 0
9:53 am 09:53 Sunny 70 21.1 26 -3.3 19 19 Calm 29.74 1007 10 16.09344 0 0
10:53 am 10:53 Sunny 73 22.8 24 -4.4 16 16 N 3 6 29.71 1006 10 16.09344 0 0
11:53 am 11:53 Sunny 76 24.4 22 -5.6 13 13 SSE 8 13 29.71 1006 10 16.09344 0 0
12:53 pm 12:53 Sunny 79 26.1 22 -5.6 12 12 N 7 11 29.68 1005 10 16.09344 0 0
1:53 pm 13:53 Sunny 80 26.7 22 -5.6 11 11 N 5 7 29.65 1004 10 16.09344 0 0
2:53 pm 14:53 Sunny 82 27.8 20 -6.7 10 10 SW 6 9 29.65 1004 10 16.09344 0 0
3:53 pm 15:53 Sunny 83 28.3 19 -7.2 9 9 SSW 7 11 29.62 1003 10 16.09344 0 0
4:53 pm 16:53 Sunny 82 27.8 21 -6.1 10 10 N 6 9 29.62 1003 10 16.09344 0 0
5:53 pm 17:53 Sunny 83 28.3 22 -5.6 10 10 N 3 6 29.59 1002 10 16.09344 0 0
6:53 pm 18:53 Sunny 80 26.7 19 -7.2 10 10 N 13 20 29.62 1003 10 16.09344 0 0
7:53 pm 19:53 Clear 77 25 20 -6.7 12 12 NNW 9 15 29.62 1003 10 16.09344 0 0
8:53 pm 20:53 Clear 75 23.9 22 -5.6 14 14 NNW 8 13 29.65 1004 10 16.09344 0 0
9:53 pm 21:53 Clear 73 22.8 24 -4.4 16 16 NW 13 20 29.68 1005 10 16.09344 0 0
10:53 pm 22:53 Clear 73 22.8 23 -5 15 15 N 12 19 29.68 1005 10 16.09344 0 0
11:53 pm 23:53 Clear 73 22.8 24 -4.4 16 16 N 10 17 29.71 1006 10 16.09344 0 0

Powered by AerisWeather